Tracking 18840 objects as of 18-November-2017
HD Live streaming from Space Station
objects crossing your sky now

FENGYUN 1C DEB

Track FENGYUN 1C DEB now!
10-day predictions


NORAD ID: 32221
Int'l Code: 1999-025CVT
Perigee: 612.1 km
Apogee: 845.6 km
Inclination: 98.4 °
Period: 99.2 minutes
Semi major axis: 7099 km
RCS: 0.0092 m2 (small)
Launch date: May 10, 1999
Source: People's Republic of China (PRC)
Launch site: Taiyaun Space Center, China (TSC)

Note: This is SATELLITE DEBRIS
aabbcc
Your satellite tracking list
Your tracking list is empty




NASA's NSSDC Master Catalog

Two Line Element Set (TLE):
1 32221U 99025CVT 17321.50247794 +.00000196 +00000-0 +52723-4 0  9996
2 32221 098.3810 052.8051 0164469 179.9270 180.1977 14.51209444544007
Source of the keplerian elements: AFSPC